Location: Unspecified
(0.0000°N, 0.0000°E)
Time: 01:42:02
(UTC+00:00)

Envisat - Pass Details

Date: 30 June 2022
Orbit: 764 x 765 km, 98.2° (Epoch: 28 June)

Event Time Altitude Azimuth Distance (km) Brightness Sun altitude
Rises 04:54:50 0° 348° (NNW) 3,213 6.4 -15.8°
Reaches altitude 10° 04:57:33 10° 333° (NNW) 2,290 5.4 -15.2°
Maximum altitude 05:01:27 23° 282° (WNW) 1,586 4.2 -14.3°
Enters shadow 05:03:02 20° 256° (WSW) 1,723 4.2 -13.9°
